Temp
6 6 6 6 5 6 6 6 6 5 5 5 5 6 6 5 5 5 5 5 6 6 6 7 7 7 7 6 9 11 12 14 13 13 14 15 16 17 15 17 18 17 17 20 20 21 20
6 6 6 6 6 6 6 6 6 5 5 5 5 6 6 6 6 5 5 5 5 6 6 7 7 7 6 7 10 11 9 13 13 13 14 15 16 17 18 18 16 19 19 19 20 20 20
7 6 6 6 7 6 6 6 5 5 5 5 5 5 5 5 5 5 5 5 6 6 6 6 7 7 6 7 11 11 10 10 13 14 14 15 17 16 18 18 19 19 17 17 19 20 19
7 6 6 6 7 6 6 5 5 5 5 5 5 5 5 5 5 5 5 5 5 6 6 6 6 6 7 9 10 10 10 10 12 14 15 17 16 15 17 18 18 18 17 15 17 19 20
6 6 6 6 6 7 6 5 5 5 5 4 5 5 5 5 5 5 6 6 5 6 6 6 6 6 8 9 9 11 11 10 11 13 14 14 13 15 18 16 14 15 14 15 16 18 19
7 7 6 7 6 7 6 6 5 5 5 4 5 5 6 5 5 5 5 5 5 6 6 5 6 7 7 9 11 10 11 11 11 11 11 12 12 15 13 12 12 14 14 15 15 19 18
8 7 6 6 7 7 6 6 6 5 5 5 5 5 6 6 5 5 5 5 5 4 5 6 7 8 9 10 11 10 11 11 11 12 11 12 11 14 13 13 15 15 16 15 18 18 19
8 8 7 6 7 8 7 6 6 6 5 5 5 5 6 6 6 6 5 5 6 6 5 6 6 8 9 11 10 10 11 11 13 12 13 13 13 13 15 15 16 16 16 17 18 19 18
8 8 8 7 7 7 7 7 6 6 6 5 5 6 6 6 6 6 6 6 6 5 8 7 7 8 10 10 10 9 10 12 13 14 14 14 15 15 16 16 17 17 18 17 18 18 18
7 8 8 7 7 7 7 8 7 7 6 6 6 6 7 7 6 7 7 7 7 7 8 8 8 9 8 9 9 9 10 13 12 14 14 14 16 16 16 17 17 17 18 18 18 16 15
7 8 8 8 8 7 8 8 8 8 7 7 7 7 7 7 7 7 8 7 7 7 9 8 9 8 9 9 9 9 10 12 14 14 14 15 15 15 16 17 17 18 18 18 18 16 15
7 7 8 8 8 8 8 8 8 8 8 8 9 8 8 8 8 9 8 8 8 10 10 9 9 9 9 9 8 8 10 13 12 12 14 15 17 17 17 17 17 17 17 16 15 14 13
6 7 7 8 8 8 8 8 8 9 9 9 10 10 10 9 10 8 8 8 10 10 8 9 10 11 10 10 10 11 10 11 10 12 13 15 16 16 18 16 17 16 14 13 14 13 13
6 6 7 8 8 8 8 8 9 9 10 10 11 12 12 11 10 8 8 9 11 10 10 10 10 11 10 11 11 12 11 12 15 15 12 12 14 16 17 17 16 14 14 13 15 14 15
6 6 7 7 8 8 9 9 9 10 10 11 11 12 13 12 11 10 9 11 11 11 11 10 10 10 10 11 11 13 13 15 15 15 15 14 14 15 15 16 16 16 15 15 15 16 14
6 6 7 7 7 8 8 9 9 10 11 12 12 12 13 13 13 11 11 11 11 11 11 12 11 12 12 13 14 15 14 14 14 14 15 15 13 15 15 16 16 16 16 15 13 15 16
6 7 6 7 7 8 9 9 9 10 12 13 12 12 14 13 13 12 11 11 12 12 13 12 13 13 13 12 14 15 13 13 14 15 15 16 14 13 15 14 14 14 15 15 14 13 14
7 7 7 7 7 7 9 9 9 10 12 13 13 11 14 14 11 9 10 13 14 13 13 14 14 14 13 13 15 12 12 13 14 14 15 14 12 12 14 14 15 15 15 14 13 15 12
7 7 7 6 7 7 8 9 9 9 11 12 12 14 14 15 10 9 12 12 12 12 13 14 14 14 15 14 13 13 12 13 13 13 14 14 13 12 13 14 14 15 16 16 13 12 13
7 7 7 7 7 7 8 9 10 9 10 11 12 10 14 15 13 11 12 12 12 13 13 14 14 15 14 13 13 12 12 12 13 13 13 14 14 14 13 14 13 14 15 15 13 12 12
8 7 7 7 7 7 8 9 10 10 10 11 12 9 11 9 11 11 12 13 12 12 13 14 14 15 14 13 13 12 12 12 13 13 14 13 13 14 14 15 15 15 14 14 13 13 13
8 7 7 7 7 7 8 8 9 10 10 11 11 10 12 10 12 11 10 11 12 11 12 13 12 12 12 11 13 13 13 13 13 13 13 11 12 13 14 14 14 13 13 13 13 14 12
8 8 7 7 7 7 7 8 9 10 10 10 10 10 12 10 10 10 10 11 11 11 12 11 12 11 10 10 11 12 13 13 12 13 12 12 11 11 12 12 12 12 13 13 13 13 14
9 8 7 7 7 7 7 8 8 9 10 10 10 11 11 9 9 10 11 11 10 10 11 10 11 10 10 11 12 13 13 13 12 10 12 11 11 10 9 11 10 13 14 14 13 13 13
9 8 8 7 7 7 7 8 8 8 9 10 10 11 11 8 9 10 10 9 10 9 8 8 8 9 11 12 9 10 9 11 9 8 9 9 9 9 9 9 10 13 12 14 14 13 13
8 8 8 7 7 7 8 7 8 8 9 9 10 10 11 8 9 12 9 11 8 7 7 7 9 10 11 9 9 8 8 11 10 9 8 9 8 8 4 7 8 12 13 13 12 11 12
8 8 7 7 7 7 7 8 7 8 8 8 9 10 10 9 10 11 9 9 11 8 5 7 8 9 10 8 8 7 9 10 9 9 8 7 7 7 7 7 8 10 12 14 12 10 13
8 8 8 7 7 7 7 8 8 8 8 9 8 9 9 9 8 9 9 10 10 10 6 7 8 8 8 9 7 7 7 8 9 10 8 8 5 7 7 7 7 12 13 12 10 10 10
7 7 7 8 7 7 7 7 7 8 7 8 8 8 8 9 8 8 9 9 10 10 10 7 8 8 8 6 6 5 6 5 7 9 10 9 9 8 8 8 11 11 11 9 10 9 9
Height
1481 1478 1474 1471 1468 1465 1462 1459 1457 1455 1454 1452 1450 1448 1448 1448 1448 1448 1449 1451 1452 1454 1457 1459 1463 1468 1473 1474 1470 1469 1471 1482 1495 1499 1504 1508 1510 1514 1516 1514 1516 1518 1514 1512 1509 1508 1508
1480 1476 1473 1469 1466 1463 1461 1458 1455 1455 1453 1451 1449 1446 1445 1445 1445 1445 1446 1447 1449 1450 1453 1456 1459 1464 1468 1466 1466 1470 1477 1481 1488 1495 1501 1505 1507 1511 1511 1512 1514 1512 1510 1509 1506 1505 1506
1477 1474 1472 1468 1465 1463 1461 1458 1455 1454 1451 1448 1445 1444 1443 1442 1442 1443 1443 1444 1445 1446 1449 1451 1454 1460 1462 1462 1464 1469 1474 1479 1486 1491 1499 1503 1505 1509 1509 1510 1509 1509 1511 1506 1503 1502 1502
1476 1473 1471 1467 1464 1462 1459 1456 1454 1451 1449 1446 1444 1441 1439 1439 1439 1440 1440 1441 1442 1444 1446 1449 1452 1457 1459 1459 1461 1462 1470 1476 1485 1492 1499 1502 1506 1507 1508 1508 1507 1509 1508 1515 1498 1498 1498
1474 1471 1468 1465 1462 1460 1458 1455 1453 1449 1446 1443 1440 1437 1435 1434 1435 1436 1437 1438 1440 1441 1445 1448 1452 1455 1457 1455 1457 1459 1467 1472 1481 1491 1497 1502 1503 1506 1504 1509 1518 1512 1522 1514 1506 1492 1495
1472 1469 1466 1463 1460 1458 1456 1454 1451 1447 1444 1440 1437 1434 1432 1431 1432 1433 1435 1437 1439 1439 1443 1448 1452 1457 1451 1450 1452 1458 1464 1470 1477 1490 1495 1501 1505 1501 1504 1513 1526 1519 1517 1509 1508 1490 1491
1471 1467 1465 1462 1459 1457 1455 1451 1448 1444 1442 1438 1435 1431 1428 1427 1428 1430 1433 1434 1439 1443 1442 1440 1442 1443 1441 1447 1453 1455 1461 1468 1480 1489 1493 1498 1505 1501 1502 1503 1503 1505 1505 1506 1495 1486 1490
1470 1466 1463 1460 1458 1455 1453 1450 1446 1442 1438 1435 1431 1429 1426 1425 1424 1426 1429 1426 1427 1432 1438 1440 1443 1445 1443 1444 1452 1454 1460 1462 1469 1477 1486 1495 1499 1494 1495 1497 1499 1503 1505 1500 1491 1486 1492
1469 1465 1461 1459 1456 1454 1451 1448 1445 1441 1437 1432 1429 1425 1423 1421 1422 1422 1421 1420 1422 1425 1428 1440 1443 1445 1445 1446 1449 1453 1449 1457 1465 1475 1478 1488 1488 1489 1492 1495 1499 1497 1497 1497 1496 1490 1489
1469 1464 1460 1457 1455 1452 1450 1447 1445 1441 1437 1431 1425 1423 1420 1420 1421 1420 1419 1417 1418 1421 1426 1440 1441 1442 1442 1448 1452 1452 1454 1459 1467 1471 1484 1489 1482 1486 1489 1491 1490 1497 1490 1489 1493 1501 1514
1468 1463 1458 1456 1454 1451 1448 1446 1443 1440 1436 1431 1427 1424 1422 1421 1419 1421 1418 1416 1417 1418 1425 1435 1433 1438 1440 1446 1447 1452 1452 1457 1460 1470 1483 1483 1481 1484 1488 1485 1485 1490 1487 1490 1492 1501 1506
1466 1462 1458 1455 1452 1450 1446 1444 1440 1439 1435 1431 1428 1426 1423 1423 1421 1420 1417 1417 1418 1415 1423 1433 1434 1435 1438 1442 1447 1450 1453 1458 1467 1482 1475 1475 1473 1477 1479 1480 1481 1485 1489 1494 1497 1506 1520
1463 1461 1457 1454 1451 1448 1446 1442 1439 1436 1434 1430 1428 1426 1423 1421 1419 1415 1415 1417 1415 1417 1431 1434 1430 1432 1442 1444 1450 1454 1459 1468 1478 1487 1481 1476 1479 1477 1475 1483 1483 1487 1501 1519 1520 1522 1520
1460 1458 1456 1452 1449 1447 1445 1441 1438 1434 1432 1429 1426 1425 1423 1420 1416 1414 1414 1417 1415 1422 1426 1433 1432 1435 1439 1447 1457 1461 1471 1467 1464 1464 1479 1488 1495 1479 1476 1478 1485 1491 1498 1512 1511 1518 1506
1459 1455 1454 1450 1448 1445 1443 1441 1437 1433 1430 1427 1425 1423 1420 1419 1415 1412 1414 1415 1421 1424 1429 1434 1439 1441 1446 1450 1455 1456 1454 1452 1455 1456 1468 1478 1484 1476 1475 1476 1479 1486 1494 1484 1496 1494 1507
1456 1453 1450 1449 1446 1444 1441 1438 1435 1432 1428 1425 1424 1422 1419 1417 1414 1413 1413 1419 1424 1426 1429 1430 1433 1434 1438 1443 1444 1444 1454 1458 1458 1457 1457 1463 1485 1477 1478 1476 1478 1480 1482 1495 1500 1505 1505
1454 1451 1448 1446 1444 1441 1439 1436 1433 1430 1426 1424 1423 1422 1420 1416 1415 1415 1423 1427 1426 1427 1427 1427 1428 1434 1438 1444 1442 1446 1455 1457 1456 1456 1457 1457 1470 1485 1477 1479 1481 1485 1488 1487 1492 1498 1506
1451 1448 1445 1442 1441 1439 1437 1435 1432 1428 1425 1424 1422 1422 1421 1416 1419 1421 1429 1425 1425 1428 1425 1423 1426 1431 1438 1441 1442 1451 1457 1458 1456 1456 1460 1459 1472 1485 1480 1474 1475 1477 1480 1485 1498 1493 1501
1447 1445 1443 1440 1439 1437 1435 1433 1431 1428 1425 1424 1421 1420 1418 1417 1427 1430 1428 1430 1431 1430 1428 1429 1433 1432 1434 1439 1448 1451 1456 1456 1455 1456 1458 1458 1468 1488 1486 1481 1478 1479 1477 1478 1485 1491 1496
1443 1442 1441 1438 1436 1435 1433 1432 1430 1428 1426 1425 1424 1425 1422 1418 1423 1425 1428 1432 1437 1434 1433 1432 1434 1434 1436 1441 1443 1454 1458 1457 1456 1456 1456 1457 1465 1471 1483 1477 1476 1480 1476 1475 1483 1498 1494
1439 1439 1439 1436 1435 1433 1432 1430 1429 1428 1426 1426 1424 1426 1427 1432 1428 1428 1429 1435 1437 1439 1437 1437 1440 1440 1443 1452 1452 1457 1459 1460 1459 1459 1458 1460 1472 1470 1472 1470 1470 1473 1475 1476 1481 1480 1485
1435 1435 1435 1434 1433 1432 1431 1429 1427 1426 1426 1426 1424 1426 1426 1428 1428 1429 1433 1439 1440 1443 1443 1443 1445 1447 1447 1456 1453 1455 1456 1458 1459 1461 1462 1464 1475 1472 1475 1472 1473 1475 1472 1473 1474 1474 1477
1431 1431 1432 1432 1431 1430 1430 1428 1426 1425 1424 1424 1425 1424 1424 1429 1429 1434 1438 1438 1441 1442 1446 1447 1447 1448 1453 1458 1457 1458 1457 1457 1459 1462 1466 1469 1474 1482 1485 1482 1479 1478 1464 1467 1468 1467 1469
1427 1428 1428 1429 1429 1429 1428 1428 1426 1425 1424 1424 1424 1425 1424 1432 1431 1434 1435 1437 1442 1442 1445 1448 1447 1450 1457 1455 1456 1457 1457 1459 1461 1464 1464 1471 1475 1483 1493 1487 1500 1462 1456 1456 1462 1462 1462
1424 1424 1425 1425 1426 1427 1427 1427 1426 1425 1425 1426 1425 1425 1425 1432 1432 1435 1437 1441 1444 1446 1448 1451 1452 1454 1454 1455 1460 1465 1469 1465 1470 1472 1471 1472 1478 1488 1493 1496 1478 1458 1461 1459 1460 1466 1464
1420 1421 1421 1422 1423 1424 1426 1426 1426 1425 1425 1426 1426 1426 1427 1429 1434 1434 1438 1441 1445 1450 1452 1454 1454 1454 1455 1457 1462 1474 1479 1469 1475 1475 1473 1474 1477 1486 1506 1503 1496 1467 1460 1458 1458 1472 1461
1416 1418 1418 1419 1420 1422 1423 1424 1425 1425 1426 1427 1427 1427 1429 1429 1433 1434 1437 1440 1441 1446 1452 1453 1454 1455 1455 1460 1468 1475 1472 1469 1475 1476 1479 1484 1486 1492 1495 1496 1480 1462 1459 1458 1470 1478 1464
1411 1414 1416 1416 1418 1419 1421 1423 1424 1425 1426 1427 1428 1428 1430 1431 1434 1436 1436 1437 1439 1442 1448 1451 1455 1457 1458 1461 1468 1472 1473 1472 1472 1470 1475 1479 1492 1490 1491 1496 1490 1457 1460 1465 1471 1469 1466
1407 1410 1413 1414 1415 1417 1419 1421 1422 1423 1424 1426 1428 1429 1430 1432 1435 1436 1438 1440 1441 1442 1443 1448 1450 1450 1453 1460 1464 1469 1473 1476 1476 1474 1466 1475 1471 1475 1477 1473 1459 1461 1462 1466 1466 1466 1465
Wind_Speed
16 18 20 15 14 14 14 13 10 10 11 10 7 7 9 11 12 14 17 17 16 16 17 19 20 19 17 22 27 5 15 43 36 34 28 19 13 11 6 7 13 4 13 22 25 25 22
17 17 18 17 14 15 15 13 11 12 12 12 12 10 10 11 13 13 14 16 17 14 15 16 18 20 22 17 37 17 13 36 44 38 29 21 13 16 4 13 4 11 14 10 14 20 22
17 17 18 17 14 14 13 13 13 11 12 13 12 12 10 10 11 12 14 16 15 15 13 15 20 22 23 23 22 28 14 31 45 43 32 25 16 7 2 4 13 18 7 8 10 14 6
20 13 16 16 13 13 12 12 10 9 10 13 13 14 11 11 13 12 14 14 13 13 10 13 13 21 11 28 29 19 24 28 44 42 32 23 16 11 11 9 7 5 2 2 7 7 10
21 13 14 14 13 12 11 12 11 11 12 14 16 16 10 11 10 11 12 12 8 9 12 14 13 12 7 13 23 28 30 27 43 44 34 13 5 18 7 3 4 2 3 6 8 10 7
20 12 12 13 13 14 11 10 12 13 14 14 13 9 11 9 9 10 12 12 13 12 18 15 11 6 11 15 23 26 29 25 41 39 18 13 6 3 2 4 6 6 5 5 7 4 6
20 14 11 14 13 12 14 10 11 13 15 13 10 8 12 5 8 13 15 13 10 4 19 11 14 5 3 16 24 21 31 33 38 32 7 16 4 10 12 8 6 5 3 9 2 5 5
19 16 12 12 12 11 13 13 12 11 14 14 12 12 11 4 11 13 17 11 12 6 7 25 7 23 4 19 14 25 30 21 33 22 13 8 12 11 9 10 9 9 8 5 1 4 4
21 17 13 12 10 11 11 15 14 12 13 16 15 14 8 3 14 16 23 26 12 16 5 10 21 16 11 13 14 18 30 16 24 20 16 13 8 12 12 7 10 7 2 2 0 2 1
20 18 15 12 10 9 13 13 15 15 13 16 17 9 4 7 9 9 12 9 8 6 3 10 13 8 8 14 2 8 21 31 5 24 13 7 6 14 7 7 6 4 3 3 2 5 3
17 18 16 13 12 10 11 15 14 14 15 15 13 9 5 7 3 8 7 12 11 5 4 3 3 12 11 9 20 6 15 5 13 18 3 9 9 12 7 6 6 4 2 2 2 2 3
16 17 15 14 13 12 12 14 12 13 13 10 8 4 7 8 7 5 9 7 5 3 5 2 5 7 6 3 5 5 8 12 18 6 6 6 6 5 6 4 5 5 2 4 3 3 1
19 15 16 15 12 13 13 12 14 12 14 9 5 2 5 8 5 11 8 4 2 4 1 3 2 13 17 15 10 16 10 9 7 8 4 5 2 1 3 5 3 4 5 2 2 1 5
20 17 15 16 14 12 13 12 14 14 12 11 3 3 6 10 13 9 7 3 4 10 9 11 10 21 9 12 8 18 11 10 11 9 4 5 3 5 2 4 5 5 7 4 4 3 4
18 22 13 16 15 13 13 13 14 15 12 10 7 6 8 8 15 1 1 4 4 3 6 10 11 11 8 6 8 10 5 4 4 3 5 5 2 1 3 2 3 4 4 5 2 2 2
17 19 17 12 16 13 13 14 16 14 12 8 6 6 5 17 7 2 2 5 5 4 13 4 4 1 15 12 9 5 6 1 3 1 3 4 5 2 2 2 2 3 1 2 1 3 3
16 16 18 15 13 14 12 14 15 14 10 6 3 4 5 15 2 3 3 4 4 7 4 2 4 8 6 5 2 4 4 3 3 2 2 2 4 2 3 4 5 1 1 1 2 4 4
15 15 16 16 12 13 11 13 14 13 10 4 3 1 11 1 3 3 3 2 4 4 6 6 8 5 5 5 4 4 4 3 4 1 2 1 5 4 3 2 2 2 5 5 4 2 1
13 14 14 15 12 13 11 10 12 12 11 5 4 4 14 6 3 2 3 4 5 6 5 4 4 1 4 3 5 4 4 4 8 3 2 1 3 4 5 3 2 3 3 4 3 2 2
12 12 12 14 12 10 12 9 9 9 9 5 2 3 9 22 11 6 5 4 3 6 6 5 4 7 6 8 6 3 3 2 6 3 4 2 3 3 5 3 4 3 3 3 5 3 4
11 10 9 12 12 10 10 9 7 6 6 2 2 1 2 1 5 6 5 3 3 3 3 7 5 4 4 4 3 4 3 3 5 3 3 3 3 3 2 2 2 3 5 7 8 6 6
12 10 8 9 10 10 7 7 7 4 3 2 2 3 4 1 1 7 6 4 3 3 4 3 7 11 12 5 1 5 5 1 2 1 3 4 2 2 2 3 3 6 8 8 9 8 8
14 10 7 6 8 9 7 5 6 5 4 2 3 2 2 1 2 4 2 3 3 6 6 10 2 6 10 3 8 8 12 10 6 4 2 3 3 3 1 4 4 8 8 9 4 3 5
11 9 7 6 6 7 7 3 3 3 4 3 5 2 2 0 3 3 3 5 5 2 6 4 12 5 2 2 4 8 13 12 12 8 5 4 3 3 2 3 2 4 3 5 6 5 5
10 10 7 6 7 7 7 3 1 1 2 3 2 2 2 2 6 6 7 6 9 12 5 5 5 5 4 2 3 4 4 3 4 6 5 2 4 3 3 3 7 5 5 3 3 3 1
10 10 8 6 7 8 6 5 3 2 3 3 3 4 4 7 1 7 6 6 4 3 3 2 4 5 3 2 3 3 3 2 1 2 5 4 6 4 2 3 4 4 1 1 3 5 5
11 10 10 6 6 9 7 6 4 3 3 2 3 3 3 4 4 9 3 5 7 5 3 1 2 3 4 2 2 2 2 1 3 5 3 3 3 4 2 2 7 7 5 3 3 4 14
12 10 9 9 7 7 10 9 7 5 4 4 2 2 2 4 4 3 4 5 7 7 4 7 4 1 2 3 3 3 2 3 1 3 5 5 5 4 2 2 6 2 3 1 1 6 12
13 10 8 8 8 7 9 10 10 8 7 7 5 3 1 2 2 4 5 4 4 8 8 12 1 4 6 4 1 3 2 2 3 2 2 2 5 4 7 5 6 9 9 10 8 6 6
Wind_Direction
339 343 348 344 339 343 341 335 330 336 328 318 311 290 277 270 256 248 240 235 232 232 226 227 224 214 208 217 219 15 208 206 189 196 204 189 194 203 189 194 246 244 252 256 267 281 296
345 343 343 349 343 341 338 338 334 329 325 316 303 290 281 274 266 251 237 232 233 236 230 229 220 205 209 233 209 204 205 201 191 191 195 183 185 213 225 224 221 270 282 283 282 280 285
353 343 338 345 348 345 342 342 341 336 330 321 312 299 288 277 260 250 236 225 228 230 228 228 213 202 214 219 218 235 216 210 189 190 191 187 170 223 234 276 284 271 273 305 278 283 246
349 345 337 339 348 338 335 330 329 326 321 315 316 306 297 284 264 248 238 229 227 229 214 192 195 193 219 229 229 231 205 203 196 196 195 186 206 265 264 274 337 296 350 302 254 247 254
346 347 336 340 342 325 330 327 326 328 332 327 314 300 296 283 255 232 222 218 223 219 204 193 179 179 219 231 231 222 210 209 194 193 188 210 271 248 240 131 351 301 244 227 303 220 196
345 350 338 344 340 327 320 323 316 317 327 328 328 301 275 254 238 219 204 203 178 161 166 169 176 165 236 218 211 207 203 200 191 193 200 207 238 221 125 128 202 220 232 251 222 261 142
353 349 344 339 340 339 323 328 322 324 322 331 326 313 310 298 225 201 191 182 161 165 195 188 194 187 281 199 198 210 198 181 168 170 164 176 170 209 203 205 211 254 242 240 260 208 124
359 348 342 333 343 338 333 326 328 333 328 331 323 315 329 199 203 200 198 218 193 169 169 210 237 214 264 168 192 211 193 171 170 161 159 155 208 212 200 211 214 237 265 299 35 158 119
353 356 346 335 337 338 339 329 329 330 332 328 322 310 300 211 195 195 196 218 220 181 163 182 225 192 186 161 178 183 172 163 159 162 166 169 206 203 210 227 216 215 188 332 211 152 285
344 352 350 337 335 342 332 336 331 330 337 339 345 6 234 219 185 230 232 245 230 201 105 131 172 194 129 161 102 176 181 151 147 157 147 201 213 196 185 195 149 183 192 127 18 65 229
347 350 348 344 333 331 336 334 338 336 339 343 8 35 156 173 210 201 284 285 267 294 104 348 76 141 139 164 148 136 128 129 141 148 177 212 175 170 170 188 148 192 104 138 102 67 29
345 342 347 344 337 330 330 338 342 335 336 339 352 63 118 125 174 261 280 285 284 230 78 110 150 155 119 149 91 123 77 93 117 137 236 181 166 129 180 94 119 130 93 25 47 93 324
334 344 339 339 341 336 333 340 337 339 331 321 328 33 168 191 277 308 259 216 244 45 304 33 95 130 109 112 105 111 115 125 138 182 131 86 60 34 115 95 59 87 72 29 14 31 225
335 337 337 335 335 338 336 336 339 337 331 312 287 229 253 282 301 305 170 190 63 55 71 100 102 110 101 111 118 140 166 185 186 127 105 132 152 173 186 158 168 163 163 165 178 197 255
332 335 335 332 331 336 335 334 337 335 337 308 267 250 266 329 336 293 197 39 53 94 121 130 139 93 121 120 147 182 174 86 93 157 141 132 83 71 79 95 130 201 186 184 145 315 62
325 328 326 331 330 329 338 336 332 339 335 316 280 254 302 341 348 129 46 55 69 77 134 193 98 235 122 135 144 126 146 338 126 130 84 156 105 231 191 106 127 146 187 91 353 190 250
318 320 328 323 324 326 335 344 336 344 340 327 272 285 16 337 58 37 82 74 94 86 199 148 145 122 121 132 134 110 23 22 35 159 245 146 108 233 122 189 177 74 317 213 143 147 175
311 314 319 312 319 330 334 346 342 352 357 331 316 34 13 171 63 47 46 28 109 30 2 42 79 81 145 158 92 76 113 65 350 337 99 31 122 118 191 141 142 200 204 164 132 244 152
307 308 313 313 310 331 341 348 347 353 12 341 355 359 26 177 103 48 55 67 56 20 6 56 92 44 52 75 99 88 79 2 29 51 128 294 72 93 12 358 352 202 195 140 124 93 215
299 302 310 314 299 320 343 356 350 351 7 3 347 53 32 69 110 107 96 55 94 10 23 38 59 75 65 19 32 109 85 7 11 59 62 58 77 127 161 157 138 170 186 161 131 135 218
287 296 302 306 299 316 331 358 345 353 358 21 349 150 113 355 1 82 86 96 85 64 33 20 35 64 130 115 61 98 98 103 18 10 31 77 95 86 69 68 79 184 215 214 202 192 191
284 283 292 289 291 300 317 344 352 6 347 34 112 130 102 53 354 68 32 25 107 88 25 31 85 66 66 81 40 135 136 130 172 341 64 4 133 83 349 330 301 267 253 233 239 240 255
277 281 272 264 279 281 310 318 352 9 355 72 101 79 133 296 24 97 181 149 89 130 39 54 45 90 62 53 53 72 83 77 98 124 100 79 99 75 97 18 7 297 251 224 209 199 207
274 271 267 244 263 253 281 308 337 33 39 96 103 63 92 10 77 117 97 88 86 51 122 35 57 90 168 17 81 73 67 63 61 39 62 111 95 86 158 42 277 240 303 194 173 228 239
262 261 261 246 235 227 253 263 281 64 90 104 108 110 70 100 124 81 92 110 93 72 62 77 46 99 136 64 74 59 5 50 42 39 22 59 118 121 135 212 296 341 5 66 96 290 9
250 245 254 246 221 220 218 243 193 199 141 130 79 81 91 124 235 137 120 134 134 112 49 66 78 115 103 86 76 121 187 177 173 31 5 54 79 107 78 144 238 247 192 159 139 325 4
244 237 239 235 216 212 211 216 221 193 199 156 152 95 87 103 141 145 139 165 137 108 104 115 113 85 46 87 95 138 194 157 155 161 168 69 50 165 189 227 287 251 217 21 96 264 330
242 234 229 225 215 206 208 210 207 213 200 186 165 135 118 89 135 170 138 152 147 157 145 161 103 335 59 89 120 188 133 207 78 175 171 162 141 188 136 184 274 263 49 20 234 21 37
228 223 218 219 214 212 208 209 206 209 209 202 191 169 125 104 132 204 193 151 167 172 141 163 144 144 168 99 86 105 125 82 164 225 111 213 181 178 186 210 232 58 113 103 49 62 37